Location: Newark
(37.9800°N, 91.3000°W)
Time: 21:52:28
(UTC+00:00)

N. Korean satellite - Pass Details

Date: 30 October 2019
Orbit: 456 x 506 km, 97.2° (Epoch: 12 November)

Event Time Altitude Azimuth Distance (km) Brightness Sun altitude
Rises 23:40:10 0° 186° (S) 2,468 10.4 -6.8°
Reaches altitude 10° 23:42:18 10° 195° (SSW) 1,604 9.6 -7.3°
Maximum altitude 23:45:29 34° 262° (W) 780 8.5 -7.9°
Drops below altitude 10° 23:48:43 10° 330° (NNW) 1,638 9.5 -8.5°
Sets 23:50:55 0° 339° (NNW) 2,529 10.3 -8.9°
